Location: Emporia
(38.4040°N, 96.1810°W)
Time: 00:37:22
(UTC-05:00)

Amateur Radio Satellites - All Passes

Search period start: 26 May 2015 00:07
Search period end: 27 May 2015 00:07
Location: Emporia, 38.4040°N, 96.1810°W

Satellite Date Start Highest point End Downlink Frequencies (MHz)
Time Altitude Azimuth
Cosmos 2504 26 May 00:11:58 00:15:50 15° 278° (W) 00:19:14 435.465 / 435.565
CUSAT 1 26 May 00:12:47 00:19:24 36° 69° (ENE) 00:24:46 437.405
TISAT 1 26 May 00:21:35 00:25:07 27° 70° (ENE) 00:28:45 437.305
UNISAT 6 26 May 00:24:19 00:28:38 56° 286° (WNW) 00:32:51 437.425
BUGSAT 1 26 May 00:29:40 00:33:48 47° 99° (E) 00:37:54 437.445
UKube-1 26 May 00:29:44 00:31:31 12° 270° (W) 00:33:02 .
HUMSAT D 26 May 00:29:50 00:31:39 12° 271° (W) 00:33:14 437.325/437.525
GONETS M04 26 May 00:36:30 00:44:42 43° 74° (ENE) 00:52:55
ISS 26 May 00:37:39 00:40:53 88° 317° (NW) 00:44:09 145.825
ESTCUBE 1 26 May 00:40:55 00:44:53 30° 264° (W) 00:48:49 437.505/2401.250
QB50P1 26 May 00:41:42 00:46:00 81° 284° (WNW) 00:50:16 145.935-145.965
POLYITAN 1 26 May 00:42:59 00:47:17 77° 284° (WNW) 00:51:32 437.675
VELOX 1 26 May 00:44:27 00:47:20 16° 268° (W) 00:50:04 145.980
CUBEBUG 1 26 May 00:45:07 00:48:59 30° 264° (W) 00:52:50 437.445
SWISSCUBE 26 May 00:55:13 00:57:01 12° 64° (ENE) 00:59:05 437.505
ANTELSAT 26 May 01:08:33 01:11:44 19° 292° (WNW) 01:14:46 437.575/2403.000
NANOSAT C BR1 26 May 01:13:52 01:17:47 35° 288° (WNW) 01:21:37 145.865
DANDE 26 May 01:14:44 01:22:45 86° 82° (E) 01:28:59 436.750
QB50P2 26 May 01:21:07 01:24:49 28° 289° (WNW) 01:28:26 145.880/145.840
PCSat 26 May 01:27:13 01:32:23 49° 113° (ESE) 01:37:37 145.827
SPROUT 26 May 01:28:36 01:32:37 36° 263° (W) 01:36:37 437.525
POPSAT HIP 1 26 May 01:34:02 01:37:22 22° 291° (WNW) 01:40:34 437.405
DUCHIFAT 1 26 May 01:37:06 01:40:19 20° 291° (WNW) 01:43:25 145.980
CUSAT 1 26 May 01:55:38 02:02:02 35° 273° (W) 02:07:05 437.405
TISAT 1 26 May 01:57:26 02:00:53 23° 266° (W) 02:04:16 437.305
VERMONT LUNAR 26 May 02:04:06 02:06:19 17° 148° (SSE) 02:08:35 437.305
BUGSAT 1 26 May 02:06:28 02:08:54 15° 293° (WNW) 02:11:09 437.445
Oscar 19 26 May 02:11:22 02:15:46 28° 95° (E) 02:20:13 437.125/150
ITUPSAT 1 26 May 02:12:50 02:17:34 71° 74° (ENE) 02:22:19 437.325
O/OREOS (USA 219) 26 May 02:14:06 02:18:24 45° 65° (ENE) 02:22:42 437.305
ISS 26 May 02:15:40 02:17:43 15° 339° (NNW) 02:19:45 145.825
BEESAT 26 May 02:21:17 02:26:02 88° 70° (ENE) 02:30:49 436.000
SWISSCUBE 26 May 02:29:38 02:34:22 69° 259° (W) 02:39:07 437.505
GONETS M04 26 May 02:33:32 02:41:31 39° 272° (W) 02:49:18
KKS-1 26 May 02:45:08 02:48:51 27° 70° (ENE) 02:52:39 437.445
Cosmos 2499 26 May 02:48:32 02:55:22 51° 77° (ENE) 03:02:19 435.465 / 435.565
Gurwin Techsat 1B 26 May 02:53:59 02:57:45 20° 92° (E) 03:01:41 435.225
DANDE 26 May 03:00:20 03:04:40 16° 281° (W) 03:08:09 436.750
PCSat 26 May 03:11:42 03:16:06 24° 311° (NW) 03:20:25 145.827
SO-50 26 May 03:11:57 03:15:21 21° 111° (ESE) 03:19:00 436.795
BEESAT 3 26 May 03:17:23 03:20:50 26° 50° (NE) 03:24:16 437.485
VERMONT LUNAR 26 May 03:40:01 03:43:14 77° 163° (SSE) 03:46:26 437.305
AIST 2 26 May 03:47:52 03:50:15 15° 44° (NE) 03:52:45 435.215
Oscar 19 26 May 03:50:34 03:55:08 32° 291° (WNW) 03:59:36 437.125/150
STARS 26 May 03:51:20 03:55:47 89° 68° (ENE) 04:00:16 437.465
ITUPSAT 1 26 May 03:54:51 03:56:03 11° 272° (W) 03:56:54 437.325
O/OREOS (USA 219) 26 May 03:54:52 03:57:28 15° 259° (W) 03:59:52 437.305
PHONESAT 2.4 26 May 03:55:04 03:58:15 34° 153° (SSE) 04:01:27 2401.200-2431.200
ITAMSAT 1 26 May 04:01:29 04:06:44 86° 286° (WNW) 04:11:58 435.822/435.867
BEESAT 2 26 May 04:04:12 04:08:17 65° 57° (ENE) 04:12:18 435.950
MOZHAYETS 4 26 May 04:07:07 04:09:46 16° 67° (ENE) 04:12:36
AO-7 26 May 04:17:11 04:23:23 24° 92° (E) 04:29:54 29.400- 29.500
KKS-1 26 May 04:21:38 04:25:26 26° 265° (W) 04:29:12 437.445
Gurwin Techsat 1B 26 May 04:32:55 04:38:01 47° 288° (WNW) 04:43:04 435.225
Cosmos 2499 26 May 04:42:35 04:48:08 24° 274° (W) 04:53:29 435.465 / 435.565
SO-50 26 May 04:51:10 04:55:37 42° 307° (NW) 05:00:14 436.795
BEESAT 3 26 May 04:55:19 04:58:46 26° 247° (WSW) 05:02:06 437.485
HORYU 2 26 May 05:05:59 05:10:25 71° 101° (E) 05:14:49 437.375
JAS-2 26 May 05:10:38 05:15:48 67° 101° (ESE) 05:21:07 435.910
VERMONT LUNAR 26 May 05:17:22 05:20:31 55° 359° (N) 05:23:41 437.305
AIST 2 26 May 05:25:06 05:29:16 60° 242° (WSW) 05:33:20 435.215
ISS 26 May 05:31:10 05:32:51 13° 19° (NNE) 05:34:36 145.825
PHONESAT 2.4 26 May 05:32:47 05:36:15 74° 348° (NNW) 05:39:43 2401.200-2431.200
MOZHAYETS 4 26 May 05:42:13 05:46:39 48° 261° (W) 05:51:05
CUBESAT XI-V 26 May 05:43:31 05:45:32 13° 65° (ENE) 05:47:48 437.345
ITAMSAT 1 26 May 05:44:22 05:45:32 11° 299° (WNW) 05:46:24 435.822/435.867
AO-7 26 May 06:08:36 06:16:56 71° 291° (WNW) 06:25:13 29.400- 29.500
Cosmos 2491 26 May 06:21:16 06:28:38 30° 69° (ENE) 06:36:12 435.465 / 435.565
Cubesat XI-IV 26 May 06:28:36 06:31:05 14° 89° (E) 06:33:54 437.490
AUBIESAT-1 26 May 06:29:54 06:30:45 11° 62° (ENE) 06:31:48 437.475
STRAND 1 26 May 06:35:37 06:39:24 22° 67° (ENE) 06:43:20 437.568
HORYU 2 26 May 06:45:26 06:46:32 11° 296° (WNW) 06:47:23 437.375
VERMONT LUNAR 26 May 06:54:38 06:57:51 88° 209° (SSW) 07:01:03 437.305
JAS-2 26 May 06:57:53 07:00:29 14° 297° (WNW) 07:02:50 435.910
ISS 26 May 07:06:35 07:09:50 63° 38° (NE) 07:13:04 145.825
PHONESAT 2.4 26 May 07:11:06 07:14:32 62° 5° (N) 07:17:59 2401.200-2431.200
YUBILEINY 26 May 07:12:14 07:19:02 27° 84° (E) 07:26:06 435.215
CUBESAT XI-V 26 May 07:17:59 07:22:32 60° 260° (W) 07:27:06 437.345
PRISM 26 May 07:30:00 07:34:06 88° 66° (ENE) 07:38:12 437.425
CUTE-I 26 May 07:46:05 07:51:28 78° 102° (ESE) 07:56:51 437.470
AIST 1 26 May 07:46:06 07:49:08 19° 72° (ENE) 07:52:18
M-CUBED/EXP-1 PRIME 26 May 07:51:49 07:56:08 72° 253° (WSW) 08:00:07 437.505
AUBIESAT-1 26 May 08:00:57 08:05:12 65° 253° (WSW) 08:09:08 437.475
AO-7 26 May 08:03:54 08:08:27 15° 309° (NW) 08:12:33 29.400- 29.500
Cubesat XI-IV 26 May 08:06:26 08:11:47 69° 286° (WNW) 08:17:07 437.490
RS-15 26 May 08:09:13 08:16:22 22° 103° (ESE) 08:24:14 29.354- 29.394
STRAND 1 26 May 08:13:34 08:18:22 41° 262° (W) 08:23:11 437.568
Cosmos 2491 26 May 08:17:27 08:26:04 57° 269° (W) 08:34:32 435.465 / 435.565
VERMONT LUNAR 26 May 08:32:18 08:34:48 21° 210° (SSW) 08:37:16 437.305
BRITE-PL 26 May 08:37:24 08:41:59 26° 92° (E) 08:46:31 437.365/2234.400
ISS 26 May 08:44:35 08:45:54 12° 231° (SW) 08:47:06 145.825
GOMX 1 26 May 08:45:19 08:48:51 18° 89° (E) 08:52:29 467.674
PHONESAT 2.4 26 May 08:49:17 08:52:40 54° 203° (SSW) 08:56:04 2401.200-2431.200
Cosmos 2504 26 May 09:05:22 09:07:04 11° 80° (E) 09:09:27 435.465 / 435.565
YUBILEINY 26 May 09:06:41 09:15:21 60° 282° (WNW) 09:23:58 435.215
CANX-2 26 May 09:07:33 09:10:10 16° 92° (E) 09:12:56 2200.000
CUTE 1.7 + AOD 2 26 May 09:11:15 09:13:51 16° 91° (E) 09:16:36 437.475
AIST 1 26 May 09:22:58 09:26:55 33° 268° (W) 09:30:51
CUTE-I 26 May 09:28:17 09:30:58 14° 298° (WNW) 09:33:22 437.470
HO-68 26 May 09:34:28 09:41:06 41° 98° (E) 09:47:47 435.675
SEEDS 26 May 09:34:36 09:38:01 25° 94° (E) 09:41:29 437.485
CINEMA 3 26 May 09:35:00 09:37:44 16° 89° (E) 09:40:37 145.822/145.860
UNISAT 6 26 May 09:48:45 09:49:33 11° 64° (ENE) 09:50:40 437.425
COMPASS 1 26 May 09:49:05 09:52:41 29° 96° (E) 09:56:19 437.405
DOVE 4 26 May 09:49:15 09:54:15 51° 98° (E) 09:58:57 437.250
AAUSAT CUBESAT 2 26 May 10:01:49 10:05:37 34° 97° (E) 10:09:24 437.432
BRITE-PL 26 May 10:15:21 10:20:38 40° 289° (WNW) 10:25:39 437.365/2234.400
RS-15 26 May 10:16:35 10:27:30 86° 301° (WNW) 10:38:44 29.354- 29.394
PCSat 26 May 10:16:44 10:21:27 30° 52° (NE) 10:26:13 145.827
GOMX 1 26 May 10:22:08 10:27:22 51° 287° (WNW) 10:32:17 467.674
ANTELSAT 26 May 10:28:36 10:32:33 28° 70° (ENE) 10:36:34 437.575/2403.000
PHONESAT 2.4 26 May 10:28:58 10:30:21 12° 215° (SW) 10:31:38 2401.200-2431.200
CUBEBUG 2 26 May 10:31:13 10:35:08 31° 95° (E) 10:38:59 437.445
NANOSAT C BR1 26 May 10:31:30 10:33:07 12° 65° (ENE) 10:34:58 145.865
DELFI C3 26 May 10:34:52 10:38:13 26° 95° (E) 10:41:38 145.870
ZACube-1 26 May 10:36:51 10:40:09 22° 93° (E) 10:43:28 437.345
QB50P2 26 May 10:38:04 10:40:28 15° 67° (ENE) 10:43:03 145.880/145.840
CANX-2 26 May 10:42:23 10:46:17 36° 287° (WNW) 10:50:07 2200.000
CUTE 1.7 + AOD 2 26 May 10:46:04 10:49:57 37° 287° (WNW) 10:53:49 437.475
DX 1 26 May 10:48:53 10:51:00 14° 91° (E) 10:53:20 434.975-435.025
POPSAT HIP 1 26 May 10:49:48 10:52:52 20° 68° (ENE) 10:56:03 437.405
Oscar 11 26 May 10:50:30 10:54:45 58° 100° (E) 10:58:58 145.826/435.025
Cosmos 2504 26 May 10:51:05 10:59:28 73° 95° (E) 11:07:19 435.465 / 435.565
DUCHIFAT 1 26 May 10:52:21 10:55:27 21° 69° (ENE) 10:58:42 145.980
TIGRISAT 26 May 11:01:03 11:05:40 61° 75° (ENE) 11:10:18 435.000
SEEDS 26 May 11:10:20 11:13:45 24° 290° (WNW) 11:17:06 437.485
CINEMA 3 26 May 11:10:45 11:15:18 46° 287° (WNW) 11:19:37 145.822/145.860
BUGSAT 1 26 May 11:18:35 11:22:02 27° 70° (ENE) 11:25:37 437.445
UWE-3 26 May 11:19:54 11:24:20 90° 241° (WSW) 11:28:36 435.000/436.395/437.385
UNISAT 6 26 May 11:21:04 11:25:47 80° 259° (W) 11:30:27 437.425
HO-68 26 May 11:22:19 11:28:46 37° 295° (WNW) 11:35:06 435.675
COMPASS 1 26 May 11:25:04 11:28:13 21° 290° (WNW) 11:31:16 437.405
DOVE 4 26 May 11:28:03 11:31:33 18° 295° (WNW) 11:34:46 437.250
AISAT 26 May 11:30:14 11:33:34 21° 93° (E) 11:37:00 437.250
FUNcube-1 26 May 11:32:05 11:36:26 86° 283° (WNW) 11:40:39 145.935
QB50P1 26 May 11:32:39 11:36:51 61° 75° (ENE) 11:41:06 145.935-145.965
POLYITAN 1 26 May 11:34:10 11:38:25 65° 75° (ENE) 11:42:43 437.675
AAUSAT CUBESAT 2 26 May 11:38:10 11:41:00 17° 291° (WNW) 11:43:40 437.432
SO-50 26 May 11:44:24 11:47:36 17° 42° (NE) 11:50:55 436.795
50 SAT 26 May 11:44:34 11:47:59 30° 96° (E) 11:51:24 437.505
PCSat 26 May 11:59:58 12:04:57 37° 249° (WSW) 12:09:51 145.827
NANOSAT C BR1 26 May 12:04:19 12:08:31 57° 260° (W) 12:12:46 145.865
ANTELSAT 26 May 12:05:16 12:09:17 27° 265° (W) 12:13:14 437.575/2403.000
CUBEBUG 2 26 May 12:08:13 12:11:41 22° 292° (WNW) 12:14:58 437.445
DELFI C3 26 May 12:10:07 12:13:14 22° 290° (WNW) 12:16:16 145.870
QB50P2 26 May 12:11:54 12:16:01 44° 261° (W) 12:20:09 145.880/145.840
HUMSAT D 26 May 12:12:32 12:16:40 63° 285° (WNW) 12:20:43 437.325/437.525
ZACube-1 26 May 12:12:47 12:16:33 29° 289° (WNW) 12:20:11 437.345
UKube-1 26 May 12:15:36 12:19:55 65° 286° (WNW) 12:24:13 .
DX 1 26 May 12:23:20 12:27:35 49° 287° (WNW) 12:31:48 434.975-435.025
POPSAT HIP 1 26 May 12:24:39 12:28:33 33° 263° (W) 12:32:26 437.405
DUCHIFAT 1 26 May 12:27:16 12:31:06 31° 264° (W) 12:34:55 145.980
Oscar 11 26 May 12:28:43 12:30:29 12° 294° (WNW) 12:32:03 145.826/435.025
RS-15 26 May 12:32:43 12:41:51 28° 328° (NNW) 12:51:00 29.354- 29.394
ESTCUBE 1 26 May 12:34:21 12:38:51 61° 101° (E) 12:43:21 437.505/2401.250
VELOX 1 26 May 12:34:25 12:38:56 78° 284° (WNW) 12:43:23 145.980
CUBEBUG 1 26 May 12:34:48 12:39:10 53° 99° (E) 12:43:31 437.445
TIGRISAT 26 May 12:40:44 12:42:52 12° 271° (W) 12:44:43 435.000
DANDE 26 May 12:40:59 12:45:35 19° 81° (E) 12:51:06 436.750
Cosmos 2504 26 May 12:47:30 12:53:39 21° 293° (WNW) 12:59:12 435.465 / 435.565
JUGNU 26 May 12:49:18 12:51:22 12° 178° (S) 12:53:27 437.505
BUGSAT 1 26 May 12:54:12 12:57:31 22° 266° (W) 13:00:47 437.445
AISAT 26 May 13:06:10 13:10:15 33° 289° (WNW) 13:14:15 437.250
QB50P1 26 May 13:12:26 13:13:12 10° 272° (W) 13:13:42 145.935-145.965
CUSAT 1 26 May 13:14:27 13:21:09 46° 91° (E) 13:28:57 437.405
SPROUT 26 May 13:16:31 13:20:38 41° 98° (E) 13:24:44 437.525
50 SAT 26 May 13:19:51 13:22:30 17° 291° (WNW) 13:25:02 437.505
SO-50 26 May 13:23:47 13:28:44 71° 241° (WSW) 13:33:35 436.795
Oscar 19 26 May 13:26:38 13:31:19 36° 70° (ENE) 13:36:05 437.125/150
GONETS M04 26 May 13:35:12 13:43:35 52° 90° (E) 13:52:05
ITAMSAT 1 26 May 13:41:27 13:44:10 15° 63° (ENE) 13:47:07 435.822/435.867
TISAT 1 26 May 13:42:26 13:46:40 59° 100° (E) 13:50:52 437.305
SRMSAT 26 May 14:05:29 14:07:13 11° 175° (S) 14:08:59 437.500
CUBEBUG 1 26 May 14:12:44 14:15:07 14° 294° (WNW) 14:17:18 437.445
ESTCUBE 1 26 May 14:13:10 14:15:16 13° 295° (WNW) 14:17:08 437.505/2401.250
Gurwin Techsat 1B 26 May 14:13:30 14:17:54 28° 68° (ENE) 14:22:26 435.225
ITUPSAT 1 26 May 14:15:47 14:19:16 20° 93° (E) 14:22:53 437.325
DANDE 26 May 14:20:49 14:27:44 80° 280° (W) 14:36:10 436.750
BEESAT 26 May 14:23:35 14:27:29 25° 94° (E) 14:31:27 436.000
SWISSCUBE 26 May 14:31:41 14:35:59 33° 97° (E) 14:40:20 437.505
JUGNU 26 May 14:38:36 14:39:30 10° 188° (S) 14:40:20 437.505
RS-15 26 May 14:53:06 14:59:43 17° 3° (N) 15:06:32 29.354- 29.394
SPROUT 26 May 14:53:37 14:56:25 17° 293° (WNW) 14:59:03 437.525
CUSAT 1 26 May 14:57:18 15:04:03 37° 291° (WNW) 15:11:31 437.405
Oscar 19 26 May 15:06:28 15:10:46 25° 266° (W) 15:14:59 437.125/150
AO-7 26 May 15:14:46 15:21:34 31° 60° (ENE) 15:28:35 29.400- 29.500
ITAMSAT 1 26 May 15:18:03 15:23:11 67° 259° (W) 15:28:21 435.822/435.867
TISAT 1 26 May 15:20:21 15:21:59 12° 295° (WNW) 15:23:24 437.305
JAS-2 26 May 15:21:29 15:26:49 27° 68° (ENE) 15:31:49 435.910
Cosmos 2499 26 May 15:22:38 15:30:18 46° 91° (E) 15:37:31 435.465 / 435.565
GONETS M04 26 May 15:32:58 15:40:48 33° 290° (WNW) 15:48:30
STARS 26 May 15:43:40 15:46:40 18° 92° (E) 15:49:48 437.465
ITUPSAT 1 26 May 15:52:53 15:57:19 38° 289° (WNW) 16:01:43 437.325
Gurwin Techsat 1B 26 May 15:52:59 15:57:48 34° 264° (W) 16:02:35 435.225
SRMSAT 26 May 15:53:44 15:55:31 11° 185° (S) 15:57:14 437.500
BEESAT 26 May 16:01:08 16:05:21 31° 290° (WNW) 16:09:30 436.000
HORYU 2 26 May 16:02:35 16:06:57 54° 74° (ENE) 16:11:21 437.375
DANDE 26 May 16:08:04 16:12:44 16° 303° (WNW) 16:17:19 436.750
SWISSCUBE 26 May 16:09:51 16:13:42 24° 292° (WNW) 16:17:27 437.505
KKS-1 26 May 16:13:22 16:17:50 66° 101° (ESE) 16:22:17 437.445
O/OREOS (USA 219) 26 May 16:24:31 16:29:02 74° 109° (ESE) 16:33:32 437.305
JAS-2 26 May 17:05:10 17:11:46 47° 261° (W) 17:17:36 435.910
AO-7 26 May 17:05:46 17:13:56 60° 257° (WSW) 17:22:09 29.400- 29.500
RS-15 26 May 17:07:26 17:17:19 32° 36° (NE) 17:27:48 29.354- 29.394
Cosmos 2499 26 May 17:16:24 17:23:38 33° 287° (WNW) 17:30:16 435.465 / 435.565
STARS 26 May 17:19:11 17:23:17 37° 288° (WNW) 17:27:19 437.465
YUBILEINY 26 May 17:26:27 17:28:06 11° 55° (NE) 17:30:32 435.215
CUTE-I 26 May 17:29:55 17:32:20 14° 62° (ENE) 17:35:02 437.470
MOZHAYETS 4 26 May 17:38:43 17:43:04 43° 98° (E) 17:47:25
HORYU 2 26 May 17:41:50 17:43:59 13° 270° (W) 17:45:54 437.375
Cubesat XI-IV 26 May 17:48:49 17:52:36 21° 66° (ENE) 17:56:35 437.490
KKS-1 26 May 17:52:17 17:53:58 12° 296° (WNW) 17:55:24 437.445
BEESAT 2 26 May 17:57:42 18:00:21 17° 111° (ESE) 18:03:10 435.950
O/OREOS (USA 219) 26 May 18:07:26 18:09:04 11° 308° (NW) 18:10:28 437.305
BEESAT 3 26 May 18:45:47 18:49:50 78° 120° (ESE) 18:53:57 437.485
CUTE-I 26 May 19:06:33 19:11:50 76° 257° (WSW) 19:17:12 437.470
PRISM 26 May 19:15:22 19:17:22 14° 91° (E) 19:19:35 437.425
CUBESAT XI-V 26 May 19:16:13 19:20:34 37° 97° (E) 19:24:57 437.345
MOZHAYETS 4 26 May 19:16:54 19:20:00 18° 293° (WNW) 19:22:56
YUBILEINY 26 May 19:18:33 19:27:11 64° 79° (E) 19:35:49 435.215
RS-15 26 May 19:19:36 19:31:20 85° 240° (WSW) 19:43:31 29.354- 29.394
Cosmos 2491 26 May 19:20:40 19:28:16 36° 87° (E) 19:36:05 435.465 / 435.565
AIST 2 26 May 19:21:26 19:25:23 40° 116° (ESE) 19:29:26 435.215
Cubesat XI-IV 26 May 19:27:17 19:32:24 48° 261° (W) 19:37:33 437.490
BEESAT 2 26 May 19:34:18 19:38:11 39° 306° (NW) 19:42:05 435.950
BRITE-PL 26 May 19:46:38 19:50:39 24° 67° (ENE) 19:55:00 437.365/2234.400
GOMX 1 26 May 19:51:55 19:55:15 18° 65° (ENE) 19:58:52 467.674
CANX-2 26 May 20:01:03 20:02:02 11° 66° (ENE) 20:03:15 2200.000
HO-68 26 May 20:02:13 20:07:55 27° 62° (ENE) 20:13:48 435.675
CUTE 1.7 + AOD 2 26 May 20:04:45 20:05:38 11° 66° (ENE) 20:06:46 437.475
AIST 1 26 May 20:16:14 20:17:21 11° 86° (E) 20:18:44
STRAND 1 26 May 20:25:08 20:30:18 75° 102° (ESE) 20:35:27 437.568
SEEDS 26 May 20:26:15 20:28:42 16° 68° (ENE) 20:31:19 437.485
BEESAT 3 26 May 20:26:42 20:28:24 12° 318° (NW) 20:29:58 437.485
CINEMA 3 26 May 20:35:26 20:38:07 15° 65° (ENE) 20:41:03 145.822/145.860
COMPASS 1 26 May 20:39:43 20:42:28 18° 68° (ENE) 20:45:19 437.405
Cosmos 2504 26 May 20:46:51 20:51:50 20° 66° (ENE) 20:57:06 435.465 / 435.565
PRISM 26 May 20:49:08 20:53:06 44° 287° (WNW) 20:57:04 437.425
AAUSAT CUBESAT 2 26 May 20:51:48 20:54:50 20° 69° (ENE) 20:57:59 437.432
DOVE 4 26 May 20:52:34 20:57:22 44° 72° (ENE) 21:02:24 437.250
CUBESAT XI-V 26 May 20:54:14 20:57:47 21° 292° (WNW) 21:01:14 437.345
AIST 2 26 May 21:00:54 21:04:09 20° 313° (NW) 21:07:22 435.215
M-CUBED/EXP-1 PRIME 26 May 21:09:20 21:12:37 67° 290° (WNW) 21:15:55 437.505
Cosmos 2491 26 May 21:16:31 21:24:57 47° 285° (WNW) 21:33:22 435.465 / 435.565
YUBILEINY 26 May 21:16:38 21:23:25 25° 276° (W) 21:29:50 435.215
AUBIESAT-1 26 May 21:17:49 21:21:05 60° 289° (WNW) 21:24:22 437.475
DELFI C3 26 May 21:22:08 21:24:11 14° 68° (ENE) 21:26:24 145.870
BRITE-PL 26 May 21:24:09 21:28:53 40° 264° (W) 21:33:57 437.365/2234.400
CUBEBUG 2 26 May 21:27:51 21:31:39 25° 69° (ENE) 21:35:33 437.445
GOMX 1 26 May 21:27:52 21:32:51 57° 261° (W) 21:38:10 467.674
ZACube-1 26 May 21:31:50 21:34:42 17° 67° (ENE) 21:37:43 437.345
CANX-2 26 May 21:33:15 21:37:29 64° 260° (W) 21:41:43 2200.000
RS-15 26 May 21:34:34 21:42:32 20° 258° (WSW) 21:49:48 29.354- 29.394
CUTE 1.7 + AOD 2 26 May 21:36:51 21:41:05 64° 259° (W) 21:45:19 437.475
Oscar 11 26 May 21:43:50 21:47:48 37° 72° (ENE) 21:51:48 145.826/435.025
DX 1 26 May 21:44:49 21:45:41 11° 64° (ENE) 21:46:48 434.975-435.025
HO-68 26 May 21:48:13 21:55:16 57° 259° (W) 22:02:19 435.675
AIST 1 26 May 21:50:26 21:54:34 51° 280° (W) 21:58:46
SEEDS 26 May 22:00:11 22:04:13 41° 262° (W) 22:08:12 437.485
STRAND 1 26 May 22:06:28 22:08:57 13° 297° (WNW) 22:11:10 437.568
CINEMA 3 26 May 22:09:53 22:14:49 63° 260° (W) 22:19:50 145.822/145.860
COMPASS 1 26 May 22:14:02 22:17:54 35° 263° (W) 22:21:45 437.405
UWE-3 26 May 22:14:52 22:19:29 62° 75° (ENE) 22:24:07 435.000/436.395/437.385
FUNcube-1 26 May 22:25:42 22:30:13 62° 75° (ENE) 22:34:45 145.935
AAUSAT CUBESAT 2 26 May 22:26:37 22:30:18 30° 264° (W) 22:33:57 437.432
AISAT 26 May 22:27:22 22:30:05 17° 67° (ENE) 22:32:59 437.250
50 SAT 26 May 22:28:49 22:31:10 16° 68° (ENE) 22:33:39 437.505
DOVE 4 26 May 22:31:28 22:35:22 21° 269° (W) 22:39:13 437.250
Cosmos 2504 26 May 22:38:50 22:45:57 64° 266° (W) 22:53:03 435.465 / 435.565
DELFI C3 26 May 22:55:09 22:58:58 42° 261° (W) 23:02:49 145.870
TIGRISAT 26 May 22:56:24 22:58:20 13° 89° (E) 23:00:27 435.000
HUMSAT D 26 May 23:02:16 23:06:35 73° 76° (ENE) 23:10:54 437.325/437.525
CUBEBUG 2 26 May 23:03:54 23:08:12 32° 264° (W) 23:12:28 437.445
ZACube-1 26 May 23:06:18 23:10:44 46° 262° (W) 23:15:09 437.345
UKube-1 26 May 23:08:38 23:12:57 87° 77° (ENE) 23:17:19 .
UNISAT 6 26 May 23:15:32 23:18:57 23° 94° (E) 23:22:25 437.425
DX 1 26 May 23:17:04 23:21:24 69° 258° (WSW) 23:25:47 434.975-435.025
Oscar 11 26 May 23:21:10 23:24:08 17° 268° (W) 23:26:59 145.826/435.025
QB50P1 26 May 23:21:49 23:22:54 11° 89° (E) 23:24:16 145.935-145.965
POLYITAN 1 26 May 23:23:21 23:24:50 12° 89° (E) 23:26:34 437.675
DANDE 26 May 23:24:45 23:28:48 15° 56° (NE) 23:32:50 436.750
CUBEBUG 1 26 May 23:29:35 23:33:33 36° 72° (ENE) 23:37:36 437.445
VELOX 1 26 May 23:30:17 23:34:42 78° 76° (ENE) 23:39:10 145.980
ESTCUBE 1 26 May 23:32:31 23:36:47 46° 73° (ENE) 23:41:06 437.505/2401.250
ISS 26 May 23:44:39 23:47:43 42° 136° (SE) 23:50:49 145.825
GONETS M04 26 May 23:48:08 23:54:36 23° 65° (ENE) 00:01:22
NANOSAT C BR1 26 May 23:51:14 23:54:43 25° 95° (E) 23:58:16 145.865
UWE-3 26 May 23:54:23 23:56:28 12° 271° (W) 23:58:16 435.000/436.395/437.385
ANTELSAT 26 May 23:58:10 00:02:33 72° 101° (ESE) 00:06:50 437.575/2403.000
QB50P2 26 May 23:58:52 00:02:41 31° 96° (E) 00:06:30 145.880/145.840
